Location: The Saddle
(36.8333°N, 80.3417°W)
Time: 07:05:19
(UTC-04:00)

Courier 1B - Pass Details

Date: 22 January 2022
Orbit: 962 x 1209 km, 28.3° (Epoch: 22 May)

Event Time Altitude Azimuth Distance (km) Brightness Sun altitude
Rises 21:28:56 0° 246° (WSW) 4,103 11.3 -46.4°
Reaches altitude 10° 21:31:57 10° 239° (WSW) 3,140 10.5 -46.9°
Enters shadow 21:33:37 17° 234° (SW) 2,644 10.0 -47.3°
